Simultaneous Nadir Overpasses (SNOs) Predictions

Prediction of SNOs between AQUA and METOP-A Satellite Orbit:

Table of predicted SNOs for the next 14.0 days since TLE Epoch: 4/16/2015
Index Date (AQUA) Time (AQUA) Lat,Lon (AQUA) SZA (AQUA ) Date (METOP-A) Time (METOP-A) Lat,Lon (METOP-A) SZA (METOP-A ) Distance(km) Time Diff (sec)
1 04/19/2015 07:11:23 -73.85,-113.39 117.26 04/19/2015 07:10:29 -73.83,-113.48 117.26 3.31 54
2 04/19/2015 08:00:52 73.94, 54.05 62.83 04/19/2015 08:01:06 73.95, 54.14 62.84 3.03 14
3 04/19/2015 08:50:30 -74.57,-139.78 116.51 04/19/2015 08:51:36 -74.55,-137.03 116.62 81.39 66
4 04/22/2015 02:45:37 -73.86, -46.97 118.22 04/22/2015 02:44:48 -73.87, -46.98 118.19 1.55 49
5 04/22/2015 03:35:06 73.95, 120.46 61.88 04/22/2015 03:35:26 73.94, 120.52 61.86 2.48 20
6 04/24/2015 22:19:47 -73.86, 19.49 119.16 04/24/2015 22:19:07 -73.85, 19.39 119.15 3.14 40
7 04/24/2015 23:09:16 73.96,-173.10 60.94 04/24/2015 23:09:44 73.97,-173.00 60.95 3.31 28
8 04/27/2015 17:53:56 -73.90, 85.86 120.02 04/27/2015 17:53:26 -73.87, 85.85 120.05 3.24 30
9 04/27/2015 18:43:24 73.96,-106.63 60.03 04/27/2015 18:44:04 73.94,-106.66 60.01 2.34 40
10 04/30/2015 12:38:23 73.26, -13.94 58.43 04/30/2015 12:37:17 73.17, -16.66 58.44 87.87 66
11 04/30/2015 13:28:01 -73.88, 152.37 120.92 04/30/2015 13:27:45 -73.88, 152.29 120.92 2.50 16
12 04/30/2015 14:17:29 73.95, -40.13 59.14 04/30/2015 14:18:23 73.95, -40.22 59.14 2.56 54




NCC Satellite Simultaneous Nadir Overpasses (SNOs) Prediction Service
